Regional Weather Roundup
Issued by NWS

Home | Current Version | Previous Version | Text Only | Print | Product List | Glossary On
Versions: 1 2 3 4 5 6 7 8 9 10 11 12 13 14 15 16 17 18 19 20 21 22 23 24 25 26 27 28 29 30 31 32 33 34 35 36 37 38 39 40 41 42 43 44 45 46 47 48 49 50
000
ASUS44 KFWD 230015
RWRTX
NORTH TEXAS HOURLY WEATHER ROUNDUP
NATIONAL WEATHER SERVICE FORT WORTH TX
700 PM CDT FRI MAY 22 2015

NOTE: "FAIR" INDICATES FEW OR NO CLOUDS BELOW 12,000 FEET WITH NO
SIGNIFICANT WEATHER AND/OR OBSTRUCTIONS TO VISIBILITY.

TXZ118-119-230100-
DALLAS/FORT WORTH METROPLEX

CITY           SKY/WX    TMP DP  RH WIND       PRES   REMARKS
DFW AIRPORT    CLOUDY    67  63  87 E5        30.07F
6HR MIN TEMP:  57; 6HR MAX TEMP:  68; 6HR PCP:  0.54;

DALLAS LOVE    CLOUDY    72  63  73 VRB3      30.08F
6HR MIN TEMP:  64; 6HR MAX TEMP:  72; 6HR PCP:  0.08;

FTW MEACHAM    CLOUDY    67  62  84 NE8       30.07F
6HR MIN TEMP:  61; 6HR MAX TEMP:  68; 6HR PCP:  0.01;

DAL-EXECUTIVE  CLOUDY    71  64  78 E8        30.08F
6HR MIN TEMP:  64; 6HR MAX TEMP:  72;

FTW-ALLIANCE   CLOUDY    65  61  87 NE6       30.08F
6HR MIN TEMP:  60; 6HR MAX TEMP:  65; 6HR PCP:  0.02;

FTW-NAS-JRB    CLOUDY    67  63  87 NE6       30.08F
6HR MIN TEMP:  61; 6HR MAX TEMP:  68; 6HR PCP:  0.01;

FTW-SPINKS     CLOUDY    70  66  88 CALM      30.09F
ARLINGTON      CLOUDY    73  63  70 E9        30.07F
6HR MIN TEMP:  63; 6HR MAX TEMP:  73; 6HR PCP:  0.01;

GRAND PRAIRIE  PTSUNNY   72  66  83 E9        30.08
ADDISON        CLOUDY    70  63  78 NE8       30.11
MESQUITE       CLOUDY    72  64  78 E3        30.09F
LANCASTER      CLOUDY    73  64  73 E6        30.08F
6HR MIN TEMP:  67; 6HR MAX TEMP:  73;

$$

TXZ091>094-102>105-117-120-121-131>134-230100-
NORTH CENTRAL TEXAS

CITY           SKY/WX    TMP DP  RH WIND       PRES   REMARKS
SHRMAN/DENISON CLOUDY    60  60  99 E5        30.13R FOG
6HR MIN TEMP:  60; 6HR MAX TEMP:  64; 6HR PCP:  0.44;

GAINESVILLE    CLOUDY    59  58  97 NE7       30.13F
6HR MIN TEMP:  58; 6HR MAX TEMP:  61; 6HR PCP:  0.19;

BOWIE          CLOUDY    58  58 100 E7        30.10S
6HR MIN TEMP:  58; 6HR MAX TEMP:  59; 6HR PCP:  0.05;

BRIDGEPORT     CLOUDY    61  61 100 E5        30.11F
6HR MIN TEMP:  60; 6HR MAX TEMP:  61; 6HR PCP:  0.10;

DECATUR        CLOUDY    60  60  99 E9        30.10F
6HR MIN TEMP:  59; 6HR MAX TEMP:  62; 6HR PCP:  0.11;

DENTON         CLOUDY    63  61  93 NE7       30.09F
6HR MIN TEMP:  61; 6HR MAX TEMP:  64; 6HR PCP:  0.03;

MCKINNEY       CLOUDY    67  62  84 E8        30.10F
6HR MIN TEMP:  60; 6HR MAX TEMP:  68; 6HR PCP:  0.21;

GREENVILLE     CLOUDY    70  61  73 E3        30.10F
ROCKWALL       CLOUDY    70  64  79 E7        30.08F
6HR MIN TEMP:  65; 6HR MAX TEMP:  72;

TERRELL        CLOUDY    74  66  76 E8        30.09F
6HR MIN TEMP:  70; 6HR MAX TEMP:  76; 6HR PCP: TRACE;

WAXAHACHIE     CLOUDY    72  67  85 E3        30.09S
6HR MIN TEMP:  65; 6HR MAX TEMP:  73;

CLEBURNE       CLOUDY    72  70  94 E5        30.09F
GRANBURY       SUNNY     71  67  84 E3        30.08F
6HR MIN TEMP:  64; 6HR MAX TEMP:  71;

$$

TXZ083>090-098>101-113>116-127>130-139>142-154-155-230100-
WESTERN NORTH TEXAS

CITY           SKY/WX    TMP DP  RH WIND       PRES   REMARKS
WICHITA FALLS  CLOUDY    59  57  93 E14       30.09F
6HR MIN TEMP:  56; 6HR MAX TEMP:  60; 6HR PCP:  0.69;

WF-KICKAPOO    CLOUDY    61  59  91 E9        30.10F
6HR MIN TEMP:  59; 6HR MAX TEMP:  61;

VERNON         CLOUDY    61  56  84 SE12      30.08F
6HR MIN TEMP:  59; 6HR MAX TEMP:  63; 6HR PCP:  0.03;

ABILENE        CLOUDY    73  66  78 SE13      30.04F
6HR MIN TEMP:  66; 6HR MAX TEMP:  74;

ABILENE-DYESS  PTSUNNY   73  63  68 SE8       30.00F
6HR MIN TEMP:  66; 6HR MAX TEMP:  74;

BRECKENRIDGE   CLOUDY    69  67  95 E8        30.05F FOG
6HR MIN TEMP:  66; 6HR MAX TEMP:  70;

GRAHAM         CLOUDY    64  64 100 E5        30.06F FOG
6HR MIN TEMP:  62; 6HR MAX TEMP:  65;

MINERAL WELLS  LGT RAIN  64  63  96 E8        30.06F VSB 3/4
6HR MIN TEMP:  62; 6HR MAX TEMP:  66; 6HR PCP:  0.03;

STEPHENVILLE   CLOUDY    68  65  91 SE5       30.10F VSB 1
6HR MIN TEMP:  63; 6HR MAX TEMP:  68;

COMANCHE       CLOUDY    71  70  95 SE8       30.07S
6HR MIN TEMP:  66; 6HR MAX TEMP:  72;

BROWNWOOD      MOSUNNY   72  68  88 S9        30.05F
COLEMAN        CLOUDY    74  68  82 SE10      30.04F
6HR MIN TEMP:  66; 6HR MAX TEMP:  75; 6HR PCP:  0.01;

BRADY          MOSUNNY   75  70  83 SE9       30.04S
$$

TXZ143>147-156>162-174-175-230100-
CENTRAL TEXAS

CITY           SKY/WX    TMP DP  RH WIND       PRES   REMARKS
WACO           CLOUDY    75  67  76 SE10      30.06F
6HR MIN TEMP:  70; 6HR MAX TEMP:  76;

WACO-TSTC      CLOUDY    75  68  78 CALM      30.06F
WACO-MCGREGOR  PTSUNNY   75  64  69 SE12      30.07F
6HR MIN TEMP:  70; 6HR MAX TEMP:  75;

HILLSBORO      CLOUDY    72  66  82 SE8       30.08F
6HR MIN TEMP:  65; 6HR MAX TEMP:  74; 6HR PCP:  0.02;

CORSICANA      CLOUDY    76  67  73 SE7       30.09F
6HR MIN TEMP:  69; 6HR MAX TEMP:  77;

MEXIA          CLOUDY    74  68  79 SE7G16    30.08F
6HR MIN TEMP:  68; 6HR MAX TEMP:  77; 6HR PCP:  0.04;

HEARNE         PTSUNNY   77  69  78 E6        30.08F
6HR MIN TEMP:  71; 6HR MAX TEMP:  79; 6HR PCP:  0.02;

CAMERON        CLOUDY    76  70  81 SE6       30.06F
6HR MIN TEMP:  68; 6HR MAX TEMP:  77;

TEMPLE         CLOUDY    73  66  78 SE9       30.05F
6HR MIN TEMP:  66; 6HR MAX TEMP:  73;

KILLEEN        CLOUDY    71  69  92 E7        30.05F
6HR MIN TEMP:  67; 6HR MAX TEMP:  72;

KILLEEN-SKYLRK CLOUDY    73  66  78 E8        30.06F
6HR MIN TEMP:  66; 6HR MAX TEMP:  73;

FORT HOOD      CLOUDY    72  69  89 SE8       30.05F
6HR MIN TEMP:  67; 6HR MAX TEMP:  72;

GATESVILLE     PTSUNNY   72  68  88 SE3       30.08F
HAMILTON       CLOUDY    71  71 100 SE15      30.08S
6HR MIN TEMP:  65; 6HR MAX TEMP:  72;

LAMPASAS       CLOUDY    71  69  94 E6        30.05F
6HR MIN TEMP:  66; 6HR MAX TEMP:  71;

$$

TXZ095>097-106>112-122>126-135>138-148>153-164>167-230100-
EAST TEXAS

CITY           SKY/WX    TMP DP  RH WIND       PRES   REMARKS
PARIS          PTSUNNY   63  57  82 E10       30.15F
6HR MIN TEMP:  63; 6HR MAX TEMP:  70; 6HR PCP:  0.14;

SULPHUR SPRNGS CLOUDY    69  60  74 E6        30.14F
6HR MIN TEMP:  68; 6HR MAX TEMP:  73;

MOUNT PLEASANT CLOUDY    71  61  69 E6        30.14F
6HR MIN TEMP:  70; 6HR MAX TEMP:  75;

GILMER         CLOUDY    74  64  71 CALM      30.12S
6HR MIN TEMP:  69; 6HR MAX TEMP:  77;

MINEOLA        PTSUNNY   73  64  73 CALM      30.12S
TYLER          MOSUNNY   77  64  64 E10       30.10F
6HR MIN TEMP:  71; 6HR MAX TEMP:  78;

LONGVIEW       PTSUNNY   75  63  66 E8        30.11F
6HR MIN TEMP:  70; 6HR MAX TEMP:  78;

MARSHALL       SUNNY     76  64  66 SE3       30.15S
6HR MIN TEMP:  71; 6HR MAX TEMP:  78;

ATHENS         CLOUDY    73  68  83 SE7       30.08F
PALESTINE      CLOUDY    77  69  75 E6        30.10F
JACKSONVILLE   CLOUDY    75  66  73 SE6       30.13F
HENDERSON      MOSUNNY   74  64  70 SE6       30.13S
6HR MIN TEMP:  69; 6HR MAX TEMP:  78;

NACOGDOCHES    PTSUNNY   73  66  78 S6        30.12S
6HR MIN TEMP:  66; 6HR MAX TEMP:  77;

LUFKIN         CLOUDY    79  67  66 SE7       30.11S
6HR MIN TEMP:  74; 6HR MAX TEMP:  81;

$$

SUPPLEMENTAL OBSERVATIONS (CENTRAL)

CITY           SKY/WX    TMP DP  RH WIND       PRES   REMARKS
LAKE TEXOMA      N/A     59  57  94 E3          N/A
CADDO GRASSLND   N/A     61  57  88 E3          N/A
PAT MAYSE LAKE   N/A     61  59  94 NE7         N/A
GREENVILLE       N/A     66  59  77 E9          N/A
CEDAR HILL       N/A     72  66  83 CALM        N/A
ATHENS           N/A     75  66  73 E7          N/A
LAKE LIMESTONE   N/A     75  66  73 SE3         N/A


USA.gov is the U.S. government's official web portal to all federal, state and local government web resources and services.